EW2649 Weather Reports


Display with metric or nautical units.
time (UTC)temp
F
wind
direction
speed
MPH
gust
MPH
rain 1hr
in
rain 24hr
in
rain mn
in
humidity
%
barometer
mb
20260506160044 56 198 1.0 2.0 0.00 0.00 0.00 87 1016.9
20260506154634 55 181 0.0 2.0 0.00 0.00 0.00 89 1016.8
20260506153108 55 182 1.0 3.0 0.00 0.00 0.00 89 1016.8
20260506151508 54 180 1.0 3.0 0.00 0.00 0.00 90 1016.8
20260506150103 54 184 2.0 3.0 0.00 0.00 0.00 91 1016.9
20260506144519 53 194 0.0 2.0 0.00 0.00 0.00 91 1016.8
20260506143107 53 193 1.0 3.0 0.00 0.00 0.00 91 1016.8
20260506141527 53 193 1.0 2.0 0.00 0.00 0.00 91 1016.6
20260506140119 53 194 0.0 1.0 0.00 0.00 0.00 91 1016.5
20260506134540 52 193 0.0 1.0 0.00 0.00 0.00 91 1016.3
20260506133125 52 194 0.0 2.0 0.00 0.00 0.00 91 1016.2
20260506131552 52 194 0.0 1.0 0.00 0.00 0.00 91 1016.0
20260506130003 52 194 1.0 3.0 0.00 0.00 0.00 91 1015.9
20260506124608 51 197 0.0 2.0 0.00 0.00 0.00 91 1015.8
20260506123015 51 188 1.0 3.0 0.00 0.00 0.00 91 1015.8
20260506121614 51 189 2.0 4.0 0.00 0.00 0.00 91 1015.8
20260506120029 51 189 1.0 3.0 0.00 0.00 0.00 91 1015.7
20260506114625 50 190 1.0 3.0 0.00 0.01 0.00 90 1015.6
20260506113044 51 223 1.0 2.0 0.00 0.01 0.00 89 1015.5
20260506111502 51 224 0.0 1.0 0.00 0.01 0.00 89 1015.5
20260506110053 52 224 1.0 2.0 0.00 0.01 0.00 89 1015.2
20260506104514 53 223 0.0 2.0 0.00 0.01 0.00 88 1015.1
20260506103105 54 224 0.0 3.0 0.00 0.01 0.00 88 1015.1
20260506101525 54 223 0.0 1.0 0.00 0.01 0.00 88 1015.1
20260506100121 54 224 0.0 1.0 0.00 0.01 0.00 88 1015.1
20260506094540 54 223 0.0 2.0 0.00 0.01 0.00 88 1015.1
20260506093133 54 223 0.0 2.0 0.00 0.01 0.00 88 1015.1
20260506091555 54 223 1.0 2.0 0.00 0.01 0.00 88 1015.0
20260506090020 54 223 0.0 2.0 0.00 0.01 0.00 87 1015.0
20260506084612 54 224 0.0 1.0 0.00 0.01 0.00 88 1015.0
20260506083033 54 224 1.0 2.0 0.00 0.01 0.00 87 1015.1
20260506081622 54 223 0.0 0.0 0.00 0.01 0.00 87 1015.1
20260506073038 54 223 0.0 0.0 0.00 0.01 0.00 85 1014.9
20260506071629 55 224 0.0 2.0 0.00 0.01 0.00 85 1014.8
20260506061526 55 224 0.0 0.0 0.00 0.01 0.01 83 1014.4
20260506060119 55 224 0.0 1.0 0.00 0.01 0.01 82 1014.3
20260506044607 56 242 2.0 4.0 0.00 0.01 0.01 81 1013.8
20260506043028 56 256 3.0 4.0 0.00 0.01 0.01 81 1013.7
20260506041619 56 236 4.0 10.0 0.00 0.01 0.01 81 1013.5
20260506040041 56 228 5.0 11.0 0.00 0.01 0.01 81 1013.2
20260506034634 57 239 1.0 4.0 0.00 0.01 0.01 81 1013.1
20260506033058 57 254 2.0 5.0 0.00 0.01 0.01 81 1012.8
20260506031514 57 224 4.0 6.0 0.00 0.01 0.01 81 1012.8
20260506030107 57 227 2.0 9.0 0.00 0.01 0.01 81 1012.6
20260506024552 57 300 6.0 12.0 0.00 0.01 0.01 81 1012.4
20260506023124 58 234 3.0 8.0 0.00 0.01 0.01 80 1012.1
20260506021541 58 217 7.0 11.0 0.00 0.01 0.01 78 1012.1
20260506020003 58 259 5.0 9.0 0.00 0.01 0.01 77 1012.1
20260506014556 59 241 7.0 11.0 0.00 0.01 0.01 77 1012.1
20260506013023 59 252 6.0 11.0 0.00 0.01 0.01 76 1012.1
20260506011611 59 236 3.0 11.0 0.00 0.01 0.01 77 1012.0
20260506010031 59 250 6.0 10.0 0.00 0.01 0.01 77 1012.0
20260506004625 59 254 3.0 10.0 0.00 0.01 0.01 78 1012.0
20260506003045 58 284 7.0 15.0 0.00 0.01 0.01 78 1012.0
20260506001503 58 283 3.0 12.0 0.00 0.01 0.01 78 1011.8
20260506000101 58 276 8.0 16.0 0.00 0.01 0.01 77 1011.7
20260505234517 59 292 9.0 15.0 0.00 0.01 0.01 77 1011.5
20260505233114 59 274 5.0 10.0 0.00 0.01 0.01 77 1011.7
20260505231537 60 268 5.0 14.0 0.00 0.01 0.01 76 1011.6
20260505230005 61 271 2.0 10.0 0.00 0.01 0.01 74 1011.6
20260505224556 62 320 5.0 9.0 0.00 0.01 0.01 71 1011.4
20260505223018 62 360 0.0 4.0 0.00 0.01 0.01 70 1011.5
20260505221609 62 329 0.0 4.0 0.00 0.01 0.01 69 1011.7
20260505220030 62 19 1.0 7.0 0.00 0.01 0.01 71 1011.6
20260505214625 62 228 2.0 7.0 0.00 0.01 0.01 69 1011.8
20260505213056 61 308 4.0 9.0 0.00 0.01 0.01 70 1012.0
20260505211507 61 281 4.0 10.0 0.00 0.01 0.01 72 1012.0
20260505210106 61 329 3.0 9.0 0.00 0.01 0.01 74 1012.0
20260505204532 61 309 1.0 6.0 0.00 0.01 0.01 73 1011.9
20260505203130 61 360 4.0 10.0 0.00 0.01 0.01 72 1011.9
20260505201542 61 342 0.0 4.0 0.00 0.01 0.01 74 1012.0
20260505200003 61 269 2.0 9.0 0.00 0.01 0.01 74 1012.1
20260505194607 60 271 7.0 11.0 0.00 0.01 0.01 75 1012.3
20260505193010 59 131 1.0 4.0 0.00 0.01 0.01 80 1012.3
20260505191604 58 202 0.0 5.0 0.00 0.01 0.01 80 1012.4
20260505190020 58 203 4.0 6.0 0.00 0.01 0.01 82 1012.3
20260505184611 57 344 0.0 3.0 0.00 0.01 0.01 85 1012.3
20260505183029 57 286 1.0 8.0 0.00 0.01 0.01 85 1012.4
20260505181626 57 10 1.0 4.0 0.00 0.01 0.01 85 1012.3
20260505180040 57 327 0.0 2.0 0.00 0.01 0.01 85 1012.2
20260505174634 56 224 1.0 2.0 0.00 0.01 0.01 86 1012.1
20260505173052 56 15 0.0 3.0 0.00 0.01 0.01 87 1012.0
20260505171516 55 38 0.0 3.0 0.00 0.01 0.01 87 1011.9
20260505170112 55 55 2.0 4.0 0.00 0.01 0.01 88 1011.8
20260505164546 55 28 0.0 3.0 0.00 0.01 0.01 90 1011.8
20260505163119 54 98 0.0 3.0 0.00 0.01 0.01 90 1011.8
20260505161543 54 294 0.0 1.0 0.00 0.01 0.01 91 1011.7